Regional Weather Roundup
Issued by NWS Midland/Odessa, TX

Home | Current Version | Previous Version | Text Only | Print | Product List | Glossary On
Versions: 1 2 3 4 5 6 7 8 9 10 11 12 13 14 15 16 17 18 19 20 21 22 23 24 25 26 27 28 29 30 31 32 33 34 35 36 37 38 39 40 41 42 43 44 45 46 47 48 49 50
000
ASUS44 KMAF 022310
RWRMAF
MIDLAND AREA WEATHER ROUNDUP
NATIONAL WEATHER SERVICE MIDLAND TX
600 PM CDT MON MAY 02 2016

...IN SOUTHWEST TEXAS AND SOUTHEAST NEW MEXICO...

CITY           SKY/WX    TMP DP  RH WIND       PRES   REMARKS
ALPINE         SUNNY     65  37  35 E10G16    30.19F
ANDREWS        FAIR      68  34  28 CALM      30.11F
ARTESIA        SUNNY     64  36  34 CALM      30.12F
BIG SPRING     SUNNY     68  35  30 NW3       30.12S
CARLSBAD       SUNNY     66  34  30 MISG      30.10F
DRYDEN           N/A     74  42  31 VRB5      30.07F
FORT STOCKTON  SUNNY     68  38  33 NE3       30.11F
GUAD PASS      SUNNY     59  32  36 E18       30.16F
HOBBS          SUNNY     64  32  29 NE7       30.13F
MARFA          SUNNY     66  37  34 NE8       30.15F
MIDLAND AIRPK  SUNNY     72  34  24 CALM      30.10F
MIDLAND INTL   SUNNY     71  35  26 VRB3      30.10F
ODESSA         SUNNY     71  34  25 N8        30.11F
PECOS          SUNNY     71  36  27 N5        30.10F
PRESIDIO       FAIR      77  41  27 NE7       30.04F
SEMINOLE       SUNNY     67  33  27 CALM      30.12F
SNYDER           N/A     66  39  36 N8        30.11F
WINK           SUNNY     71  35  26 VRB3      30.09F
$$
...OTHER STATIONS IN TEXAS...

CITY           SKY/WX    TMP DP  RH WIND       PRES   REMARKS
ABILENE        SUNNY     67  43  41 N10       30.10F
AMARILLO       SUNNY     62  36  37 NW10      30.13F
AUSTIN         CLOUDY    64  51  62 N14       30.07F
BROWNSVILLE    CLOUDY    73  61  65 N13G22    29.96R
CORPUS CHRISTI PTSUNNY   74  56  53 N18       29.99S
DALLAS FTW     CLOUDY    64  47  53 N9        30.08S
DEL RIO        MOSUNNY   71  48  43 N8        30.07F
EL PASO        MOSUNNY   72  31  22 E10       30.07F
HOUSTON INT    PTSUNNY   69  60  73 N14       29.98S
LUBBOCK        SUNNY     67  33  28 VRB5      30.11F
SAN ANGELO     SUNNY     68  47  46 VRB6      30.10F
SAN ANTONIO    CLOUDY    63  51  65 N12       30.09R
WACO           CLOUDY    63  50  62 N10       30.10R
WICHITA FALLS  NOT AVBL
$$
...OTHER LOCATIONS IN NEW MEXICO...

CITY           SKY/WX    TMP DP  RH WIND       PRES   REMARKS
ALAMAGORDO     SUNNY     68  28  22 S3        30.11F
ALBUQUERQUE    MOSUNNY   62  31  31 W8        30.15F
CANNON AFB     SUNNY     63  34  33 VRB1      30.13F
CLOVIS         SUNNY     63  36  36 CALM      30.15S
HOLLOMAN AFB   SUNNY     68  31  25 W5        30.09F
ROSWELL        SUNNY     66  33  29 SE6       30.11F
RUIDOSO          N/A     54  36  50 SE9       30.20F
SANTA FE       SUNNY     58  29  33 S6        30.16F
TRUTH OR CONSE MOSUNNY   69  29  22 E10       30.09F
TUCUMCARI      SUNNY     64  33  31 VRB5      30.11F
$$



USA.gov is the U.S. government's official web portal to all federal, state and local government web resources and services.